Time,TemperatureF,DewpointF,PressureIn,WindDirection,WindDirectionDegrees,WindSpeedMPH,WindSpeedGustMPH,Humidity,HourlyPrecipIn,Conditions,Clouds,dailyrainin,SoftwareType,DateUTC
2013-07-14 00:02:00,66.0,-99.9,-100.00,North,-999,-999.0,-999.0,-999,0.00,,,-99.99,,2013-07-14 04:02:00,
2013-07-14 00:11:00,66.0,-99.9,-100.00,North,-999,-999.0,-999.0,-999,0.00,,,-99.99,,2013-07-14 04:11:00,
2013-07-14 00:22:00,66.0,-99.9,-100.00,North,-999,-999.0,-999.0,-999,0.00,,,-99.99,,2013-07-14 04:22:00,
2013-07-14 00:32:00,66.0,-99.9,-100.00,North,-999,-999.0,-999.0,-999,0.00,,,-99.99,,2013-07-14 04:32:00,
2013-07-14 00:43:00,66.0,-99.9,-100.00,North,-999,-999.0,-999.0,-999,0.00,,,-99.99,,2013-07-14 04:43:00,
2013-07-14 01:12:00,65.0,-99.9,-100.00,North,-999,-999.0,-999.0,-999,0.00,,,-99.99,,2013-07-14 05:12:00,
2013-07-14 01:23:00,65.0,-99.9,-100.00,North,-999,-999.0,-999.0,-999,0.00,,,-99.99,,2013-07-14 05:23:00,
2013-07-14 01:32:00,65.0,-99.9,-100.00,North,-999,-999.0,-999.0,-999,0.00,,,-99.99,,2013-07-14 05:32:00,
2013-07-14 01:43:00,65.0,-99.9,-100.00,North,-999,-999.0,-999.0,-999,0.00,,,-99.99,,2013-07-14 05:43:00,
2013-07-14 02:12:00,65.0,-99.9,-100.00,North,-999,-999.0,-999.0,-999,0.01,,,0.00,,2013-07-14 06:12:00,
2013-07-14 02:22:00,65.0,-99.9,-100.00,North,-999,-999.0,-999.0,-999,0.01,,,0.00,,2013-07-14 06:22:00,
2013-07-14 02:32:00,65.0,-99.9,-100.00,North,-999,-999.0,-999.0,-999,0.01,,,0.00,,2013-07-14 06:32:00,
2013-07-14 02:42:00,65.0,-99.9,-100.00,North,-999,-999.0,-999.0,-999,0.01,,,0.00,,2013-07-14 06:42:00,
2013-07-14 03:12:00,64.0,-99.9,-100.00,North,-999,-999.0,-999.0,-999,0.00,,,0.00,,2013-07-14 07:12:00,
2013-07-14 03:22:00,64.0,-99.9,-100.00,North,-999,-999.0,-999.0,-999,0.00,,,0.00,,2013-07-14 07:22:00,
2013-07-14 03:33:00,64.0,-99.9,-100.00,North,-999,-999.0,-999.0,-999,0.00,,,0.00,,2013-07-14 07:33:00,
2013-07-14 03:43:00,64.0,-99.9,-100.00,North,-999,-999.0,-999.0,-999,0.00,,,0.00,,2013-07-14 07:43:00,
2013-07-14 04:02:00,64.0,-99.9,-100.00,North,-999,-999.0,-999.0,-999,0.00,,,0.00,,2013-07-14 08:02:00,
2013-07-14 04:11:00,64.0,-99.9,-100.00,North,-999,-999.0,-999.0,-999,0.00,,,0.00,,2013-07-14 08:11:00,
2013-07-14 04:22:00,64.0,-99.9,-100.00,North,-999,-999.0,-999.0,-999,0.00,,,0.00,,2013-07-14 08:22:00,
2013-07-14 04:32:00,64.0,-99.9,-100.00,North,-999,-999.0,-999.0,-999,0.00,,,0.00,,2013-07-14 08:32:00,
2013-07-14 04:42:00,64.0,-99.9,-100.00,North,-999,-999.0,-999.0,-999,0.00,,,0.00,,2013-07-14 08:42:00,
2013-07-14 05:11:00,63.0,-99.9,-100.00,North,-999,-999.0,-999.0,-999,0.00,,,0.00,,2013-07-14 09:11:00,
2013-07-14 05:22:00,63.0,-99.9,-100.00,North,-999,-999.0,-999.0,-999,0.00,,,0.00,,2013-07-14 09:22:00,
2013-07-14 05:32:00,63.0,-99.9,-100.00,North,-999,-999.0,-999.0,-999,0.00,,,0.00,,2013-07-14 09:32:00,
2013-07-14 05:42:00,63.0,-99.9,-100.00,North,-999,-999.0,-999.0,-999,0.00,,,0.00,,2013-07-14 09:42:00,
2013-07-14 06:12:00,63.0,-99.9,-100.00,North,-999,-999.0,-999.0,-999,0.00,,,0.00,,2013-07-14 10:12:00,
2013-07-14 06:22:00,63.0,-99.9,-100.00,North,-999,-999.0,-999.0,-999,0.00,,,0.00,,2013-07-14 10:22:00,
2013-07-14 06:32:00,63.0,-99.9,-100.00,North,-999,-999.0,-999.0,-999,0.00,,,0.00,,2013-07-14 10:32:00,
2013-07-14 06:42:00,63.0,-99.9,-100.00,North,-999,-999.0,-999.0,-999,0.00,,,0.00,,2013-07-14 10:42:00,
2013-07-14 07:11:00,65.0,-99.9,-100.00,North,-999,-999.0,-999.0,-999,-99.99,,,-99.99,,2013-07-14 11:11:00,
2013-07-14 07:22:00,65.0,-99.9,-100.00,North,-999,-999.0,-999.0,-999,-99.99,,,-99.99,,2013-07-14 11:22:00,
2013-07-14 07:33:00,65.0,-99.9,-100.00,North,-999,-999.0,-999.0,-999,-99.99,,,-99.99,,2013-07-14 11:33:00,
2013-07-14 07:43:00,65.0,-99.9,-100.00,North,-999,-999.0,-999.0,-999,-99.99,,,-99.99,,2013-07-14 11:43:00,
2013-07-14 08:02:00,72.0,-99.9,-100.00,North,-999,-999.0,-999.0,-999,0.01,,,-99.99,,2013-07-14 12:02:00,
2013-07-14 08:12:00,72.0,-99.9,-100.00,North,-999,-999.0,-999.0,-999,0.01,,,-99.99,,2013-07-14 12:12:00,
2013-07-14 08:22:00,72.0,-99.9,-100.00,North,-999,-999.0,-999.0,-999,0.01,,,-99.99,,2013-07-14 12:22:00,
2013-07-14 08:33:00,72.0,-99.9,-100.00,North,-999,-999.0,-999.0,-999,0.01,,,-99.99,,2013-07-14 12:33:00,
2013-07-14 08:43:00,72.0,-99.9,-100.00,North,-999,-999.0,-999.0,-999,0.01,,,-99.99,,2013-07-14 12:43:00,
2013-07-14 09:11:00,76.0,-99.9,-100.00,North,-999,-999.0,-999.0,-999,0.00,,,0.00,,2013-07-14 13:11:00,
2013-07-14 09:22:00,76.0,-99.9,-100.00,North,-999,-999.0,-999.0,-999,0.00,,,0.00,,2013-07-14 13:22:00,
2013-07-14 09:32:00,76.0,-99.9,-100.00,North,-999,-999.0,-999.0,-999,0.00,,,0.00,,2013-07-14 13:32:00,
2013-07-14 10:12:00,80.0,-99.9,-100.00,North,-999,-999.0,-999.0,-999,0.00,,,0.00,,2013-07-14 14:12:00,
2013-07-14 10:23:00,80.0,-99.9,-100.00,North,-999,-999.0,-999.0,-999,0.00,,,0.00,,2013-07-14 14:23:00,
2013-07-14 10:33:00,80.0,-99.9,-100.00,North,-999,-999.0,-999.0,-999,0.00,,,0.00,,2013-07-14 14:33:00,
2013-07-14 10:43:00,80.0,-99.9,-100.00,North,-999,-999.0,-999.0,-999,0.00,,,0.00,,2013-07-14 14:43:00,
2013-07-14 11:12:00,83.0,-99.9,-100.00,North,-999,-999.0,-999.0,-999,-99.99,,,0.00,,2013-07-14 15:12:00,
2013-07-14 11:22:00,83.0,-99.9,-100.00,North,-999,-999.0,-999.0,-999,-99.99,,,0.00,,2013-07-14 15:22:00,
2013-07-14 11:32:00,83.0,-99.9,-100.00,North,-999,-999.0,-999.0,-999,-99.99,,,0.00,,2013-07-14 15:32:00,
2013-07-14 11:43:00,83.0,-99.9,-100.00,North,-999,-999.0,-999.0,-999,-99.99,,,0.00,,2013-07-14 15:43:00,
2013-07-14 12:01:00,84.0,-99.9,-100.00,North,-999,-999.0,-999.0,-999,-99.99,,,-99.99,,2013-07-14 16:01:00,
2013-07-14 12:12:00,84.0,-99.9,-100.00,North,-999,-999.0,-999.0,-999,-99.99,,,-99.99,,2013-07-14 16:12:00,
2013-07-14 12:22:00,84.0,-99.9,-100.00,North,-999,-999.0,-999.0,-999,-99.99,,,-99.99,,2013-07-14 16:22:00,
2013-07-14 12:32:00,84.0,-99.9,-100.00,North,-999,-999.0,-999.0,-999,-99.99,,,-99.99,,2013-07-14 16:32:00,
2013-07-14 12:43:00,84.0,-99.9,-100.00,North,-999,-999.0,-999.0,-999,-99.99,,,-99.99,,2013-07-14 16:43:00,
2013-07-14 13:12:00,84.0,-99.9,-100.00,North,-999,-999.0,-999.0,-999,0.00,,,-99.99,,2013-07-14 17:12:00,
2013-07-14 13:23:00,84.0,-99.9,-100.00,North,-999,-999.0,-999.0,-999,0.00,,,-99.99,,2013-07-14 17:23:00,
2013-07-14 13:32:00,84.0,-99.9,-100.00,North,-999,-999.0,-999.0,-999,0.00,,,-99.99,,2013-07-14 17:32:00,
2013-07-14 13:43:00,84.0,-99.9,-100.00,North,-999,-999.0,-999.0,-999,0.00,,,-99.99,,2013-07-14 17:43:00,
2013-07-14 14:12:00,85.0,-99.9,-100.00,North,-999,-999.0,-999.0,-999,-99.99,,,-99.99,,2013-07-14 18:12:00,
2013-07-14 14:22:00,85.0,-99.9,-100.00,North,-999,-999.0,-999.0,-999,-99.99,,,-99.99,,2013-07-14 18:22:00,
2013-07-14 14:32:00,85.0,-99.9,-100.00,North,-999,-999.0,-999.0,-999,-99.99,,,-99.99,,2013-07-14 18:32:00,
2013-07-14 14:42:00,85.0,-99.9,-100.00,North,-999,-999.0,-999.0,-999,-99.99,,,-99.99,,2013-07-14 18:42:00,
2013-07-14 15:02:00,89.0,-99.9,-100.00,North,-999,-999.0,-999.0,-999,0.00,,,-99.99,,2013-07-14 19:02:00,
2013-07-14 15:12:00,89.0,-99.9,-100.00,North,-999,-999.0,-999.0,-999,0.00,,,-99.99,,2013-07-14 19:12:00,
2013-07-14 15:22:00,89.0,-99.9,-100.00,North,-999,-999.0,-999.0,-999,0.00,,,-99.99,,2013-07-14 19:22:00,
2013-07-14 15:32:00,89.0,-99.9,-100.00,North,-999,-999.0,-999.0,-999,0.00,,,-99.99,,2013-07-14 19:32:00,
2013-07-14 15:44:00,89.0,-99.9,-100.00,North,-999,-999.0,-999.0,-999,0.00,,,-99.99,,2013-07-14 19:44:00,
2013-07-14 16:12:00,91.0,-99.9,-100.00,North,-999,-999.0,-999.0,-999,0.00,,,-99.99,,2013-07-14 20:12:00,
2013-07-14 16:22:00,91.0,-99.9,-100.00,North,-999,-999.0,-999.0,-999,0.00,,,-99.99,,2013-07-14 20:22:00,
2013-07-14 16:32:00,91.0,-99.9,-100.00,North,-999,-999.0,-999.0,-999,0.00,,,-99.99,,2013-07-14 20:32:00,
2013-07-14 16:44:00,91.0,-99.9,-100.00,North,-999,-999.0,-999.0,-999,0.00,,,-99.99,,2013-07-14 20:44:00,
2013-07-14 17:12:00,92.0,-99.9,-100.00,North,-999,-999.0,-999.0,-999,0.00,,,0.00,,2013-07-14 21:12:00,
2013-07-14 17:22:00,92.0,-99.9,-100.00,North,-999,-999.0,-999.0,-999,0.00,,,0.00,,2013-07-14 21:22:00,
2013-07-14 17:32:00,92.0,-99.9,-100.00,North,-999,-999.0,-999.0,-999,0.00,,,0.00,,2013-07-14 21:32:00,
2013-07-14 17:43:00,92.0,-99.9,-100.00,North,-999,-999.0,-999.0,-999,0.00,,,0.00,,2013-07-14 21:43:00,
2013-07-14 18:11:00,92.0,-99.9,-100.00,North,-999,-999.0,-999.0,-999,0.00,,,-99.99,,2013-07-14 22:11:00,
2013-07-14 18:22:00,92.0,-99.9,-100.00,North,-999,-999.0,-999.0,-999,0.00,,,-99.99,,2013-07-14 22:22:00,
2013-07-14 18:32:00,92.0,-99.9,-100.00,North,-999,-999.0,-999.0,-999,0.00,,,-99.99,,2013-07-14 22:32:00,
2013-07-14 18:42:00,92.0,-99.9,-100.00,North,-999,-999.0,-999.0,-999,0.00,,,-99.99,,2013-07-14 22:42:00,
2013-07-14 19:12:00,89.0,-99.9,-100.00,North,-999,-999.0,-999.0,-999,0.00,,,0.00,,2013-07-14 23:12:00,
2013-07-14 19:22:00,89.0,-99.9,-100.00,North,-999,-999.0,-999.0,-999,0.00,,,0.00,,2013-07-14 23:22:00,
2013-07-14 19:32:00,89.0,-99.9,-100.00,North,-999,-999.0,-999.0,-999,0.00,,,0.00,,2013-07-14 23:32:00,
2013-07-14 19:42:00,89.0,-99.9,-100.00,North,-999,-999.0,-999.0,-999,0.00,,,0.00,,2013-07-14 23:42:00,
2013-07-14 20:11:00,81.0,-99.9,-100.00,North,-999,-999.0,-999.0,-999,0.00,,,0.00,,2013-07-15 00:11:00,
2013-07-14 20:22:00,81.0,-99.9,-100.00,North,-999,-999.0,-999.0,-999,0.00,,,0.00,,2013-07-15 00:22:00,
2013-07-14 20:32:00,81.0,-99.9,-100.00,North,-999,-999.0,-999.0,-999,0.00,,,0.00,,2013-07-15 00:32:00,
2013-07-14 20:43:00,81.0,-99.9,-100.00,North,-999,-999.0,-999.0,-999,0.00,,,0.00,,2013-07-15 00:43:00,
2013-07-14 21:12:00,77.0,-99.9,-100.00,North,-999,-999.0,-999.0,-999,0.03,,,0.00,,2013-07-15 01:12:00,
2013-07-14 21:22:00,77.0,-99.9,-100.00,North,-999,-999.0,-999.0,-999,0.03,,,0.00,,2013-07-15 01:22:00,
2013-07-14 21:32:00,77.0,-99.9,-100.00,North,-999,-999.0,-999.0,-999,0.03,,,0.00,,2013-07-15 01:32:00,
2013-07-14 21:43:00,77.0,-99.9,-100.00,North,-999,-999.0,-999.0,-999,0.03,,,0.00,,2013-07-15 01:43:00,
2013-07-14 22:02:00,75.0,-99.9,-100.00,North,-999,-999.0,-999.0,-999,-99.99,,,-99.99,,2013-07-15 02:02:00,
2013-07-14 22:12:00,75.0,-99.9,-100.00,North,-999,-999.0,-999.0,-999,-99.99,,,-99.99,,2013-07-15 02:12:00,
2013-07-14 22:22:00,75.0,-99.9,-100.00,North,-999,-999.0,-999.0,-999,-99.99,,,-99.99,,2013-07-15 02:22:00,
2013-07-14 22:32:00,75.0,-99.9,-100.00,North,-999,-999.0,-999.0,-999,-99.99,,,-99.99,,2013-07-15 02:32:00,
2013-07-14 22:42:00,75.0,-99.9,-100.00,North,-999,-999.0,-999.0,-999,-99.99,,,-99.99,,2013-07-15 02:42:00,
2013-07-14 23:12:00,74.0,-99.9,-100.00,North,-999,-999.0,-999.0,-999,0.00,,,0.00,,2013-07-15 03:12:00,
2013-07-14 23:22:00,74.0,-99.9,-100.00,North,-999,-999.0,-999.0,-999,0.00,,,0.00,,2013-07-15 03:22:00,
2013-07-14 23:32:00,74.0,-99.9,-100.00,North,-999,-999.0,-999.0,-999,0.00,,,0.00,,2013-07-15 03:32:00,
2013-07-14 23:43:00,74.0,-99.9,-100.00,North,-999,-999.0,-999.0,-999,0.00,,,0.00,,2013-07-15 03:43:00,